GFSCGP_prec_sndepth_231.txt.gz
Snowfall_Accumulation
0.0 0.0 0.4 0.0 0.0 0.0 0.0 0.1 0.0 0.0 0.0 0.0 0.0 0.0 0.0 0.0 0.0 0.0 0.0 0.0 0.0 0.0 0.0 0.0 0.0 0.0 0.0 0.0 0.0 0.0 0.0 0.0 0.0 0.0 0.0 0.0 0.0 0.0 0.0 0.0 0.0 0.0 0.0 0.0
0.3 0.2 0.0 0.0 0.0 0.0 0.0 0.1 0.3 0.0 0.0 0.0 0.0 0.0 0.0 0.0 0.0 0.0 0.0 0.0 0.0 0.0 0.0 0.0 0.0 0.0 0.0 0.0 0.0 0.0 0.0 0.0 0.0 0.0 0.0 0.0 0.0 0.0 0.0 0.0 0.0 0.0 0.0 0.0
0.3 0.0 0.0 0.0 0.1 0.1 0.0 0.2 0.0 0.0 0.0 0.0 0.0 0.0 0.0 0.0 0.0 0.0 0.0 0.0 0.0 0.0 0.0 0.0 0.0 0.0 0.0 0.0 0.0 0.0 0.0 0.0 0.0 0.0 0.0 0.0 0.0 0.0 0.0 0.0 0.0 0.0 0.0 0.0
0.1 0.0 0.0 0.0 0.1 0.1 1.0 0.0 0.0 0.2 0.6 0.8 0.0 2.7 0.0 0.0 0.0 0.0 0.0 0.0 0.0 0.0 0.0 0.0 0.0 0.0 0.0 0.0 0.0 0.0 0.0 0.0 0.0 0.0 0.0 0.0 0.0 0.0 0.0 0.0 0.0 0.0 0.0 0.0
0.6 0.1 0.2 1.9 0.1 0.0 0.9 0.0 0.0 0.0 0.6 0.3 0.0 1.2 0.0 0.0 0.0 0.0 0.0 0.0 0.0 0.0 0.0 0.0 0.0 0.0 0.0 0.0 0.0 0.0 0.0 0.0 0.0 0.0 0.0 0.0 0.0 0.0 0.0 0.0 0.0 0.0 0.0 0.0
0.7 0.0 1.1 0.7 0.0 0.2 0.0 0.3 0.0 0.2 0.5 12.2 0.0 0.1 0.0 0.0 0.0 0.0 0.0 0.0 0.0 0.0 0.0 0.0 0.0 0.0 0.0 0.0 0.0 0.0 0.0 0.0 0.0 0.0 0.0 0.0 0.0 0.0 0.0 0.0 0.0 0.0 0.0 0.0
0.3 0.3 0.1 0.1 0.8 0.1 1.2 0.8 14.1 20.3 26.7 10.0 0.0 0.1 0.0 0.0 0.0 0.0 0.0 0.0 0.0 0.0 0.0 0.0 0.0 0.0 0.0 0.0 0.0 0.0 0.0 0.0 0.0 0.0 0.0 0.0 0.0 0.0 0.0 0.0 0.0 0.0 0.0 0.0
5.1 7.8 1.9 1.7 0.9 1.0 0.3 0.5 4.5 7.1 6.7 2.7 0.0 4.6 0.0 0.0 0.0 0.0 0.0 0.0 0.0 0.0 0.0 0.0 0.0 0.0 0.0 0.0 0.0 0.0 0.0 0.0 0.0 0.0 0.0 0.0 0.0 0.0 0.0 0.0 0.0 0.0 0.0 0.0
6.3 3.7 0.3 1.1 1.4 0.3 0.5 1.8 0.0 2.6 3.2 1.8 1.8 0.1 0.0 0.0 0.0 0.0 0.0 0.0 0.0 0.0 0.0 0.0 0.0 0.0 0.0 0.0 0.0 0.0 0.0 0.0 0.0 0.0 0.0 0.0 0.0 0.0 0.0 0.0 0.0 0.0 0.0 0.0
3.2 8.7 0.0 0.3 1.7 0.6 0.4 0.0 2.4 3.3 11.9 4.7 0.8 0.3 0.0 0.0 0.0 0.0 0.0 0.0 0.0 0.0 0.0 0.0 0.0 0.0 0.0 0.0 0.0 0.0 0.0 0.0 0.0 0.0 0.0 0.0 0.0 0.0 0.0 0.0 0.0 0.0 0.0 0.0
0.7 3.8 1.5 0.5 5.7 2.7 0.8 0.1 0.1 0.1 2.9 7.4 2.5 0.9 0.0 0.0 0.0 0.0 0.0 0.0 0.0 0.0 0.0 0.0 0.0 0.0 0.0 0.0 0.0 0.0 0.0 0.0 0.0 0.0 0.0 0.0 0.0 0.0 0.0 0.0 0.0 0.0 0.0 0.0
0.3 3.5 8.4 8.8 3.3 0.5 0.1 1.1 0.0 3.9 3.2 2.7 3.2 1.7 0.0 0.0 0.0 0.0 0.0 0.0 0.0 0.0 0.0 0.0 0.0 0.0 0.0 0.0 0.0 0.0 0.0 0.0 0.0 0.0 0.0 0.0 0.0 0.0 0.0 0.0 0.0 0.0 0.0 0.0
0.5 1.6 9.3 8.4 4.3 0.4 1.7 0.9 0.8 0.0 1.3 3.9 5.4 2.9 0.0 0.0 0.0 0.0 0.0 0.0 0.0 0.0 0.0 0.0 0.0 0.0 0.0 0.0 0.0 0.0 0.0 0.0 0.0 0.0 0.0 0.0 0.0 0.0 0.0 0.0 0.0 0.0 0.0 0.0
nan 0.3 4.4 9.7 8.1 4.6 3.3 1.5 0.2 0.6 13.7 6.3 2.6 1.2 0.1 0.0 0.0 0.0 0.0 0.0 0.0 0.0 0.0 0.0 0.0 0.0 0.0 0.0 0.0 0.0 0.0 0.0 0.0 0.0 0.0 0.0 0.0 0.0 0.0 0.0 0.0 0.0 0.0 0.0
0.3 5.0 1.6 3.4 3.7 4.9 6.6 3.1 0.8 2.0 4.3 4.2 2.9 2.3 1.0 0.0 0.0 0.0 0.0 0.0 0.0 0.0 0.0 0.0 0.0 0.0 0.0 0.0 0.0 0.0 0.0 0.0 0.0 0.0 0.0 0.0 0.0 0.0 0.0 0.0 0.0 0.0 0.0 0.0
0.0 4.8 2.4 3.8 2.5 4.9 6.6 3.1 2.2 1.4 1.3 2.0 2.7 2.9 0.8 0.3 0.0 0.0 0.0 0.0 0.0 0.0 0.0 0.0 0.0 0.0 0.0 0.0 0.0 0.0 0.0 0.0 0.0 0.0 0.0 0.0 0.0 0.0 0.0 0.0 0.0 0.0 0.0 0.0
0.3 2.9 7.3 15.8 3.1 2.2 13.8 7.2 4.3 4.6 3.9 1.8 4.1 6.2 2.0 2.0 0.8 0.2 0.0 0.0 0.0 0.0 0.0 0.0 0.0 0.0 0.0 0.0 0.0 0.0 0.0 0.0 0.0 0.0 0.0 0.0 0.0 0.0 0.0 0.0 0.0 0.0 0.0 0.0
0.5 2.4 4.2 19.3 7.9 43.5 6.3 4.7 4.1 7.1 5.4 4.5 2.6 3.1 2.9 2.8 1.1 1.0 0.2 0.1 0.1 0.0 0.0 0.0 0.0 0.0 0.0 0.0 0.0 0.0 0.0 0.0 0.0 0.0 0.0 0.0 0.0 0.0 0.0 0.0 0.0 0.0 0.0 0.0
0.1 1.9 21.2 35.4 20.0 3.2 1.0 5.2 6.5 4.5 7.4 6.7 4.9 3.8 2.1 0.4 0.1 2.8 2.0 0.4 0.3 0.1 0.0 0.0 0.0 0.0 0.0 0.0 0.0 0.0 0.0 0.0 0.0 0.0 0.0 0.0 0.0 0.1 0.1 0.2 0.1 0.0 0.1 0.0
0.2 0.9 3.5 25.3 27.2 28.5 4.2 3.0 1.6 1.9 7.4 5.7 6.1 5.9 3.8 0.0 4.0 7.3 4.1 1.0 0.9 1.0 0.9 0.4 0.2 0.2 0.0 0.1 0.1 0.1 0.1 0.2 0.2 0.1 0.0 0.0 0.1 0.2 0.2 0.1 0.2 0.2 0.2 0.1
10.7 13.1 25.8 20.3 19.8 7.7 3.1 0.8 0.0 4.7 7.2 6.6 5.4 5.8 1.2 1.8 2.7 3.3 1.4 1.1 0.9 0.9 1.2 0.5 0.6 0.5 0.4 0.3 0.2 0.3 0.3 0.5 0.3 0.3 0.3 0.3 0.4 0.8 0.3 0.4 0.3 0.5 0.7 0.4
5.4 13.2 25.3 16.7 21.8 29.7 1.9 0.0 2.0 4.6 4.3 6.1 5.0 3.6 2.6 3.8 3.7 2.9 2.2 2.3 2.0 1.9 1.2 0.8 0.4 0.2 0.2 0.1 0.1 0.2 0.3 0.4 0.6 0.8 0.9 1.1 1.7 1.0 0.9 2.9 1.5 2.3 1.9 2.1
5.8 1.8 4.9 2.8 5.0 2.3 2.9 3.0 4.2 4.7 5.0 4.8 2.0 1.1 0.4 0.3 0.7 0.2 0.1 0.0 0.0 0.0 0.0 0.0 0.1 0.1 0.1 0.4 0.4 0.6 0.8 1.0 1.7 2.9 4.4 3.9 3.0 2.5 2.4 3.7 2.4 4.1 2.9 4.1
0.3 0.0 1.1 1.4 0.9 2.5 3.7 2.3 2.3 2.3 0.8 0.2 0.0 0.0 0.0 0.0 0.0 0.0 0.0 0.0 0.0 0.1 0.1 0.2 0.5 0.7 0.6 0.5 0.6 0.5 0.9 1.3 5.5 5.2 2.8 2.0 2.5 1.5 1.9 2.6 3.0 4.6 4.4 4.2
0.3 0.1 0.2 0.9 0.8 1.7 1.1 0.8 1.0 1.3 1.1 0.2 0.0 0.0 0.0 0.0 0.0 0.0 0.1 0.2 0.1 0.2 0.3 0.6 0.8 0.7 0.8 0.8 0.8 1.6 1.6 2.3 2.9 3.4 2.2 2.6 3.3 3.3 2.3 2.0 3.2 2.9 1.4 3.6
0.1 0.3 0.5 1.4 0.8 0.7 0.3 0.0 0.0 0.0 0.1 0.0 0.0 0.0 0.1 0.1 0.0 0.1 0.2 0.1 0.2 0.4 0.6 1.1 1.4 1.3 1.4 2.1 2.4 3.5 4.4 3.8 4.2 2.4 3.9 3.4 3.3 3.3 3.1 3.5 4.4 nan nan nan

GFSCGP_prec_sndepth_234.txt.gz
Snowfall_Accumulation
0.0 0.0 0.4 0.0 0.0 0.0 0.0 0.0 0.0 0.0 0.0 0.0 0.0 0.0 0.0 0.0 0.0 0.0 0.0 0.0 0.0 0.0 0.0 0.0 0.0 0.0 0.0 0.0 0.0 0.0 0.0 0.0 0.0 0.0 0.0 0.0 0.0 0.0 0.0 0.0 0.0 0.0 0.0 0.0
0.2 0.2 0.0 0.0 0.0 0.0 0.0 0.1 0.2 0.0 0.0 0.0 0.0 0.0 0.0 0.0 0.0 0.0 0.0 0.0 0.0 0.0 0.0 0.0 0.0 0.0 0.0 0.0 0.0 0.0 0.0 0.0 0.0 0.0 0.0 0.0 0.0 0.0 0.0 0.0 0.0 0.0 0.0 0.0
0.3 0.0 0.0 0.0 0.0 0.1 0.0 0.1 0.0 0.0 0.0 0.0 0.0 0.0 0.0 0.0 0.0 0.0 0.0 0.0 0.0 0.0 0.0 0.0 0.0 0.0 0.0 0.0 0.0 0.0 0.0 0.0 0.0 0.0 0.0 0.0 0.0 0.0 0.0 0.0 0.0 0.0 0.0 0.0
0.1 0.0 0.0 0.0 0.2 0.1 1.7 0.0 0.0 0.1 0.7 0.8 0.0 2.7 0.0 0.0 0.0 0.0 0.0 0.0 0.0 0.0 0.0 0.0 0.0 0.0 0.0 0.0 0.0 0.0 0.0 0.0 0.0 0.0 0.0 0.0 0.0 0.0 0.0 0.0 0.0 0.0 0.0 0.0
0.5 0.0 0.2 2.6 0.1 0.0 2.6 0.0 0.3 0.5 0.6 0.3 0.0 1.4 0.0 0.0 0.0 0.0 0.0 0.0 0.0 0.0 0.0 0.0 0.0 0.0 0.0 0.0 0.0 0.0 0.0 0.0 0.0 0.0 0.0 0.0 0.0 0.0 0.0 0.0 0.0 0.0 0.0 0.0
0.6 0.0 0.9 0.6 0.0 0.2 0.2 0.7 0.1 0.2 0.5 13.2 0.0 0.1 0.0 0.0 0.0 0.0 0.0 0.0 0.0 0.0 0.0 0.0 0.0 0.0 0.0 0.0 0.0 0.0 0.0 0.0 0.0 0.0 0.0 0.0 0.0 0.0 0.0 0.0 0.0 0.0 0.0 0.0
0.3 0.3 0.1 0.1 1.2 0.1 1.3 1.2 15.5 21.6 28.1 10.1 0.0 0.1 0.0 0.0 0.0 0.0 0.0 0.0 0.0 0.0 0.0 0.0 0.0 0.0 0.0 0.0 0.0 0.0 0.0 0.0 0.0 0.0 0.0 0.0 0.0 0.0 0.0 0.0 0.0 0.0 0.0 0.0
5.1 8.0 2.0 1.4 1.2 1.8 0.6 1.3 4.6 7.1 6.6 2.7 0.0 4.5 0.0 0.0 0.0 0.0 0.0 0.0 0.0 0.0 0.0 0.0 0.0 0.0 0.0 0.0 0.0 0.0 0.0 0.0 0.0 0.0 0.0 0.0 0.0 0.0 0.0 0.0 0.0 0.0 0.0 0.0
6.8 3.8 0.2 0.9 1.2 0.4 0.6 2.1 0.0 2.6 3.2 1.8 1.8 0.1 0.0 0.0 0.0 0.0 0.0 0.0 0.0 0.0 0.0 0.0 0.0 0.0 0.0 0.0 0.0 0.0 0.0 0.0 0.0 0.0 0.0 0.0 0.0 0.0 0.0 0.0 0.0 0.0 0.0 0.0
3.5 9.7 0.0 0.2 1.7 0.5 0.4 0.0 2.6 3.3 12.5 6.0 0.8 0.3 0.0 0.0 0.0 0.0 0.0 0.0 0.0 0.0 0.0 0.0 0.0 0.0 0.0 0.0 0.0 0.0 0.0 0.0 0.0 0.0 0.0 0.0 0.0 0.0 0.0 0.0 0.0 0.0 0.0 0.0
0.7 4.9 1.6 0.5 6.0 3.1 0.8 0.1 0.1 0.1 2.9 8.9 5.0 2.9 0.8 0.0 0.0 0.0 0.0 0.0 0.0 0.0 0.0 0.0 0.0 0.0 0.0 0.0 0.0 0.0 0.0 0.0 0.0 0.0 0.0 0.0 0.0 0.0 0.0 0.0 0.0 0.0 0.0 0.0
0.5 3.8 9.0 8.9 3.9 0.8 0.5 2.8 1.0 4.9 3.5 3.4 4.9 3.0 0.1 0.0 0.0 0.0 0.0 0.0 0.0 0.0 0.0 0.0 0.0 0.0 0.0 0.0 0.0 0.0 0.0 0.0 0.0 0.0 0.0 0.0 0.0 0.0 0.0 0.0 0.0 0.0 0.0 0.0
0.8 1.7 9.4 8.4 4.4 0.3 1.8 1.0 1.8 0.5 1.4 4.4 7.6 5.4 0.0 0.0 0.0 0.0 0.0 0.0 0.0 0.0 0.0 0.0 0.0 0.0 0.0 0.0 0.0 0.0 0.0 0.0 0.0 0.0 0.0 0.0 0.0 0.0 0.0 0.0 0.0 0.0 0.0 0.0
nan 1.2 5.0 10.2 8.6 5.3 5.3 2.0 0.7 1.1 14.6 6.8 3.8 1.6 0.3 0.1 0.0 0.0 0.0 0.0 0.0 0.0 0.0 0.0 0.0 0.0 0.0 0.0 0.0 0.0 0.0 0.0 0.0 0.0 0.0 0.0 0.0 0.0 0.0 0.0 0.0 0.0 0.0 0.0
0.4 5.9 2.5 4.2 4.6 5.9 7.6 4.0 1.6 3.0 5.5 5.1 3.6 2.5 1.2 0.3 0.0 0.0 0.0 0.0 0.0 0.0 0.0 0.0 0.0 0.0 0.0 0.0 0.0 0.0 0.0 0.0 0.0 0.0 0.0 0.0 0.0 0.0 0.0 0.0 0.0 0.0 0.0 0.0
0.1 5.4 3.0 4.3 3.6 6.4 7.5 3.7 2.6 1.6 2.0 2.3 3.1 3.2 1.4 0.7 0.0 0.1 0.0 0.0 0.0 0.0 0.0 0.0 0.0 0.0 0.0 0.0 0.0 0.0 0.0 0.0 0.0 0.0 0.0 0.0 0.0 0.0 0.0 0.0 0.0 0.0 0.0 0.0
0.9 4.2 8.0 16.7 3.7 2.5 14.3 9.5 5.3 5.5 4.9 2.4 5.0 7.9 3.1 3.6 1.3 0.6 0.2 0.0 0.0 0.0 0.0 0.0 0.0 0.0 0.0 0.0 0.0 0.0 0.0 0.0 0.0 0.0 0.0 0.0 0.0 0.0 0.0 0.0 0.0 0.1 0.0 0.0
1.0 3.5 4.9 19.5 7.9 43.9 9.8 5.8 5.2 9.6 6.8 5.8 3.4 4.9 4.2 4.8 2.3 1.8 0.8 0.3 0.3 0.1 0.1 0.1 0.1 0.0 0.0 0.0 0.0 0.0 0.0 0.0 0.0 0.0 0.0 0.0 0.1 0.3 0.3 0.3 0.3 0.3 0.1 0.1
0.6 2.9 21.7 36.0 20.9 4.2 1.2 7.5 9.1 6.4 10.7 8.5 6.8 5.6 4.7 1.2 0.2 4.8 4.3 1.9 2.1 1.4 0.8 1.0 0.7 0.5 0.2 0.3 0.1 0.0 0.2 0.3 0.4 0.9 0.8 0.7 0.3 0.4 0.3 0.3 0.2 0.2 0.2 0.2
0.3 1.2 3.9 25.3 27.6 30.7 7.2 3.9 1.6 2.5 10.1 8.7 9.9 8.6 5.9 0.0 5.4 11.7 7.5 3.7 3.5 2.8 2.1 1.7 1.2 0.8 0.6 0.9 0.5 0.3 0.4 0.4 0.7 0.8 0.8 0.8 0.5 0.6 0.6 0.4 0.5 0.5 0.5 0.4
10.8 13.2 25.7 20.3 20.7 9.8 4.3 0.8 0.0 6.7 11.8 11.1 9.7 10.0 1.9 3.4 5.0 6.6 3.5 3.1 3.0 2.8 2.8 1.9 1.9 1.8 1.4 1.3 1.6 1.3 0.9 1.2 0.6 0.6 0.3 0.3 0.4 0.8 0.3 0.4 0.3 0.5 0.7 0.4
6.0 13.5 25.5 16.7 22.0 32.9 2.2 0.0 3.9 8.5 6.8 8.5 7.0 5.0 4.4 6.5 6.3 4.9 4.0 4.2 3.2 3.1 1.7 1.3 0.5 0.3 0.2 0.1 0.1 0.2 0.3 0.4 0.6 0.8 0.9 1.1 1.7 1.0 0.9 2.8 1.5 2.3 1.9 2.1
6.1 2.1 5.1 3.2 6.1 3.7 3.6 4.2 4.9 5.3 5.3 5.1 2.9 2.1 0.8 0.6 1.0 0.2 0.1 0.0 0.0 0.0 0.0 0.0 0.1 0.1 0.1 0.4 0.4 0.6 0.8 0.9 1.6 2.9 4.4 3.8 3.0 2.5 2.3 3.7 2.4 4.1 2.9 4.1
0.4 0.0 1.2 1.8 1.4 3.2 4.1 2.3 2.3 2.3 0.8 0.2 0.0 0.0 0.0 0.0 0.0 0.0 0.0 0.0 0.0 0.1 0.1 0.2 0.5 0.7 0.6 0.5 0.6 0.5 0.8 1.3 5.4 5.2 2.8 2.0 2.5 1.5 1.8 2.6 3.0 4.6 4.4 4.2
0.3 0.1 0.2 1.1 1.0 1.8 1.1 0.7 1.0 1.2 1.1 0.2 0.0 0.0 0.0 0.0 0.0 0.0 0.1 0.1 0.1 0.2 0.3 0.6 0.7 0.7 0.8 0.8 0.8 1.6 1.6 2.3 2.8 3.4 2.2 2.6 3.2 3.3 2.2 2.0 3.2 2.9 1.4 3.5
0.1 0.3 0.5 1.5 0.8 0.7 0.3 0.0 0.0 0.0 0.1 0.0 0.0 0.0 0.1 0.0 0.0 0.1 0.2 0.1 0.2 0.4 0.6 1.1 1.4 1.3 1.4 2.0 2.4 3.5 4.4 3.7 4.2 2.4 3.8 3.4 3.2 3.3 3.0 3.4 4.4 nan nan nan

GFSCGP_prec_sndepth_237.txt.gz
Snowfall_Accumulation
0.0 0.1 0.6 0.1 0.0 0.0 0.0 0.1 0.0 0.0 0.0 0.0 0.0 0.0 0.0 0.0 0.0 0.0 0.0 0.0 0.0 0.0 0.0 0.0 0.0 0.0 0.0 0.0 0.0 0.0 0.0 0.0 0.0 0.0 0.0 0.0 0.0 0.0 0.0 0.0 0.0 0.0 0.0 0.0
0.2 0.2 0.0 0.0 0.0 0.0 0.0 0.1 0.2 0.0 0.0 0.0 0.0 0.0 0.0 0.0 0.0 0.0 0.0 0.0 0.0 0.0 0.0 0.0 0.0 0.0 0.0 0.0 0.0 0.0 0.0 0.0 0.0 0.0 0.0 0.0 0.0 0.0 0.0 0.0 0.0 0.0 0.0 0.0
0.3 0.0 0.0 0.0 0.0 0.1 0.1 0.2 0.0 0.0 0.0 0.0 0.0 0.0 0.0 0.0 0.0 0.0 0.0 0.0 0.0 0.0 0.0 0.0 0.0 0.0 0.0 0.0 0.0 0.0 0.0 0.0 0.0 0.0 0.0 0.0 0.0 0.0 0.0 0.0 0.0 0.0 0.0 0.0
0.1 0.0 0.0 0.0 0.2 0.1 2.3 0.0 0.0 0.2 0.9 1.3 0.0 3.1 0.0 0.0 0.0 0.0 0.0 0.0 0.0 0.0 0.0 0.0 0.0 0.0 0.0 0.0 0.0 0.0 0.0 0.0 0.0 0.0 0.0 0.0 0.0 0.0 0.0 0.0 0.0 0.0 0.0 0.0
0.5 0.0 0.2 3.3 0.1 0.0 3.8 0.0 0.3 0.6 1.6 0.9 0.2 1.6 0.0 0.0 0.0 0.0 0.0 0.0 0.0 0.0 0.0 0.0 0.0 0.0 0.0 0.0 0.0 0.0 0.0 0.0 0.0 0.0 0.0 0.0 0.0 0.0 0.0 0.0 0.0 0.0 0.0 0.0
0.5 0.0 0.9 0.5 0.0 0.3 0.2 0.9 0.2 0.5 0.9 14.5 0.0 0.1 0.0 0.0 0.0 0.0 0.0 0.0 0.0 0.0 0.0 0.0 0.0 0.0 0.0 0.0 0.0 0.0 0.0 0.0 0.0 0.0 0.0 0.0 0.0 0.0 0.0 0.0 0.0 0.0 0.0 0.0
0.3 0.3 0.1 0.1 1.3 0.1 1.2 2.0 16.4 22.9 29.3 10.2 0.0 0.2 0.0 0.0 0.0 0.0 0.0 0.0 0.0 0.0 0.0 0.0 0.0 0.0 0.0 0.0 0.0 0.0 0.0 0.0 0.0 0.0 0.0 0.0 0.0 0.0 0.0 0.0 0.0 0.0 0.0 0.0
5.1 8.0 2.0 1.2 1.4 3.0 0.6 1.5 4.9 7.2 6.6 2.7 0.0 4.5 0.0 0.0 0.0 0.0 0.0 0.0 0.0 0.0 0.0 0.0 0.0 0.0 0.0 0.0 0.0 0.0 0.0 0.0 0.0 0.0 0.0 0.0 0.0 0.0 0.0 0.0 0.0 0.0 0.0 0.0
7.0 3.7 0.2 0.9 1.1 0.3 1.1 2.1 0.0 2.7 3.2 1.8 1.8 0.1 0.0 0.0 0.0 0.0 0.0 0.0 0.0 0.0 0.0 0.0 0.0 0.0 0.0 0.0 0.0 0.0 0.0 0.0 0.0 0.0 0.0 0.0 0.0 0.0 0.0 0.0 0.0 0.0 0.0 0.0
3.6 10.3 0.0 0.2 1.5 0.4 0.5 0.2 2.9 3.4 12.7 6.4 1.1 0.8 1.9 0.4 0.0 0.0 0.0 0.0 0.0 0.0 0.0 0.0 0.0 0.0 0.0 0.0 0.0 0.0 0.0 0.0 0.0 0.0 0.0 0.0 0.0 0.0 0.0 0.0 0.0 0.0 0.0 0.0
0.6 5.5 1.6 0.5 6.2 4.3 1.0 1.0 0.6 0.7 3.3 9.7 6.1 5.7 3.5 0.1 0.0 0.0 0.0 0.0 0.0 0.0 0.0 0.0 0.0 0.0 0.0 0.0 0.0 0.0 0.0 0.0 0.0 0.0 0.0 0.0 0.0 0.0 0.0 0.0 0.0 0.0 0.0 0.0
0.5 4.1 9.3 8.9 3.9 0.8 0.5 3.3 1.7 6.9 4.3 3.8 5.5 4.2 1.4 0.0 0.0 0.0 0.0 0.0 0.0 0.0 0.0 0.0 0.0 0.0 0.0 0.0 0.0 0.0 0.0 0.0 0.0 0.0 0.0 0.0 0.0 0.0 0.0 0.0 0.0 0.0 0.0 0.0
1.7 1.8 9.5 8.3 4.5 0.3 1.8 1.4 2.1 0.9 2.0 5.3 9.0 7.1 1.0 0.3 0.0 0.0 0.0 0.0 0.0 0.0 0.0 0.0 0.0 0.0 0.0 0.0 0.0 0.0 0.0 0.0 0.0 0.0 0.0 0.0 0.0 0.0 0.0 0.0 0.0 0.0 0.0 0.0
nan 1.8 5.6 11.1 9.2 6.1 6.4 2.1 1.0 1.9 15.0 7.6 4.9 3.0 1.8 1.2 0.2 0.0 0.0 0.0 0.0 0.0 0.0 0.0 0.0 0.0 0.0 0.0 0.0 0.0 0.0 0.0 0.0 0.0 0.0 0.0 0.0 0.0 0.0 0.0 0.0 0.0 0.0 0.0
0.7 6.5 3.6 5.3 5.6 7.0 8.1 4.5 2.0 3.8 6.2 5.6 5.0 3.7 3.3 2.2 0.7 0.1 0.0 0.0 0.0 0.0 0.0 0.0 0.0 0.0 0.0 0.0 0.0 0.0 0.0 0.0 0.0 0.0 0.0 0.0 0.0 0.0 0.0 0.0 0.0 0.0 0.0 0.0
0.5 6.2 3.8 5.3 4.7 7.2 7.7 4.1 3.0 1.7 2.3 2.4 3.4 3.6 2.9 2.3 0.4 0.4 0.4 0.0 0.0 0.0 0.0 0.0 0.0 0.0 0.0 0.0 0.0 0.0 0.0 0.0 0.0 0.0 0.0 0.0 0.0 0.0 0.0 0.0 0.1 0.2 0.5 0.6
1.9 5.4 8.6 17.4 3.8 2.5 14.7 12.2 5.9 6.2 5.8 2.9 5.7 9.9 5.1 5.4 2.0 1.3 0.6 0.2 0.2 0.2 0.3 0.5 0.2 0.1 0.0 0.1 0.0 0.0 0.0 0.0 0.0 0.0 0.0 0.0 0.0 0.1 0.3 0.2 0.3 1.1 1.7 0.9
2.0 4.1 5.0 19.5 7.9 44.3 13.3 6.6 6.2 12.3 7.9 7.0 4.7 6.8 6.6 7.8 4.4 2.9 1.7 0.7 0.8 0.6 0.5 0.5 0.6 0.3 0.6 0.0 0.1 0.1 0.0 0.1 0.1 0.3 0.2 0.2 0.2 0.8 0.9 0.8 1.2 1.4 1.2 1.1
1.0 3.2 22.0 36.7 21.9 5.2 1.3 9.3 11.8 8.2 12.7 10.1 8.8 7.4 8.3 2.7 0.3 7.0 6.6 4.2 4.5 3.0 2.4 2.3 1.7 1.5 0.7 1.0 0.6 0.9 0.9 0.6 0.7 1.7 1.6 1.6 0.9 1.1 0.8 1.0 1.0 1.2 1.2 1.2
0.3 1.2 3.9 25.4 28.2 32.8 9.8 4.3 1.6 2.9 12.8 12.3 13.8 12.5 7.9 0.0 6.5 15.9 11.1 5.9 6.1 5.0 3.8 3.5 2.8 2.1 1.4 1.6 0.7 0.4 0.5 0.5 0.9 1.0 1.1 1.2 1.0 1.0 1.2 0.8 0.9 0.9 0.6 0.5
10.8 13.2 25.7 20.3 21.5 11.7 4.8 0.8 0.0 8.6 16.3 15.2 13.2 13.8 2.0 4.6 6.9 9.9 5.8 4.8 4.7 4.1 4.0 2.6 2.0 2.1 1.6 1.4 1.7 1.4 1.0 1.4 0.6 0.6 0.3 0.3 0.4 0.8 0.3 0.4 0.3 0.5 0.6 0.4
6.3 13.6 25.5 16.7 22.9 35.9 2.2 0.0 5.4 11.3 8.8 10.5 8.6 6.3 5.8 8.3 7.8 5.7 4.5 4.5 3.3 3.3 1.9 1.3 0.5 0.3 0.3 0.1 0.1 0.2 0.3 0.4 0.6 0.8 0.9 1.1 1.7 1.0 0.9 2.8 1.5 2.3 1.9 2.1
6.2 2.2 5.2 3.3 7.2 4.1 3.6 4.3 5.1 5.6 5.6 5.3 3.0 2.2 0.9 0.6 1.0 0.2 0.1 0.0 0.0 0.0 0.0 0.1 0.1 0.2 0.2 0.5 0.5 0.8 0.9 0.9 1.6 2.9 4.4 3.8 3.0 2.4 2.3 3.6 2.4 4.1 2.9 4.1
0.4 0.0 1.2 2.0 1.7 3.2 4.1 2.3 2.4 2.3 0.8 0.2 0.0 0.0 0.0 0.0 0.0 0.0 0.0 0.0 0.0 0.1 0.1 0.2 0.5 0.6 0.6 0.5 0.6 0.5 0.8 1.2 5.4 5.2 2.8 2.0 2.4 1.5 1.8 2.5 3.0 4.6 4.4 4.2
0.3 0.1 0.2 1.2 1.0 1.8 1.0 0.7 1.0 1.2 1.0 0.2 0.0 0.0 0.0 0.0 0.0 0.0 0.1 0.1 0.1 0.1 0.3 0.6 0.7 0.7 0.7 0.7 0.8 1.6 1.6 2.3 2.8 3.3 2.2 2.5 3.2 3.3 2.2 2.0 3.2 2.9 1.4 3.5
0.1 0.3 0.5 1.5 0.8 0.7 0.3 0.0 0.0 0.0 0.1 0.0 0.0 0.0 0.1 0.0 0.0 0.1 0.2 0.1 0.2 0.4 0.6 1.1 1.3 1.3 1.4 2.0 2.4 3.4 4.4 3.7 4.2 2.4 3.8 3.3 3.2 3.2 3.0 3.4 4.4 nan nan nan

GFSCGP_prec_sndepth_240.txt.gz
Snowfall_Accumulation
0.0 0.1 0.7 0.1 0.0 0.0 0.0 0.2 0.1 0.0 0.0 0.0 0.0 0.0 0.0 0.0 0.0 0.0 0.0 0.0 0.0 0.0 0.0 0.0 0.0 0.0 0.0 0.0 0.0 0.0 0.0 0.0 0.0 0.0 0.0 0.0 0.0 0.0 0.0 0.0 0.0 0.0 0.0 0.0
0.2 0.2 0.0 0.0 0.0 0.0 0.1 0.6 0.5 0.0 0.0 0.0 0.0 0.0 0.0 0.0 0.0 0.0 0.0 0.0 0.0 0.0 0.0 0.0 0.0 0.0 0.0 0.0 0.0 0.0 0.0 0.0 0.0 0.0 0.0 0.0 0.0 0.0 0.0 0.0 0.0 0.0 0.0 0.0
0.3 0.0 0.0 0.0 0.1 0.7 0.4 0.7 0.2 0.0 0.0 0.0 0.0 0.0 0.0 0.0 0.0 0.0 0.0 0.0 0.0 0.0 0.0 0.0 0.0 0.0 0.0 0.0 0.0 0.0 0.0 0.0 0.0 0.0 0.0 0.0 0.0 0.0 0.0 0.0 0.0 0.0 0.0 0.0
0.1 0.0 0.0 0.0 0.4 0.1 3.5 0.0 0.0 0.2 1.0 1.6 0.0 3.4 0.0 0.0 0.0 0.0 0.0 0.0 0.0 0.0 0.0 0.0 0.0 0.0 0.0 0.0 0.0 0.0 0.0 0.0 0.0 0.0 0.0 0.0 0.0 0.0 0.0 0.0 0.0 0.0 0.0 0.0
0.5 0.0 0.2 3.3 0.1 0.0 3.9 0.0 0.3 0.6 1.7 1.1 0.2 3.1 0.0 0.0 0.0 0.0 0.0 0.0 0.0 0.0 0.0 0.0 0.0 0.0 0.0 0.0 0.0 0.0 0.0 0.0 0.0 0.0 0.0 0.0 0.0 0.0 0.0 0.0 0.0 0.0 0.0 0.0
0.5 0.0 0.9 0.5 0.0 0.3 0.2 0.9 0.2 0.8 1.4 15.8 0.0 0.1 0.0 0.0 0.0 0.0 0.0 0.0 0.0 0.0 0.0 0.0 0.0 0.0 0.0 0.0 0.0 0.0 0.0 0.0 0.0 0.0 0.0 0.0 0.0 0.0 0.0 0.0 0.0 0.0 0.0 0.0
0.2 0.3 0.1 0.1 1.3 0.1 1.2 2.3 16.4 23.0 29.6 10.2 0.0 0.2 0.0 0.0 0.0 0.0 0.0 0.0 0.0 0.0 0.0 0.0 0.0 0.0 0.0 0.0 0.0 0.0 0.0 0.0 0.0 0.0 0.0 0.0 0.0 0.0 0.0 0.0 0.0 0.0 0.0 0.0
5.1 8.0 2.0 1.2 1.8 4.1 0.7 2.0 5.1 7.5 6.7 2.7 0.0 4.6 0.0 0.0 0.0 0.0 0.0 0.0 0.0 0.0 0.0 0.0 0.0 0.0 0.0 0.0 0.0 0.0 0.0 0.0 0.0 0.0 0.0 0.0 0.0 0.0 0.0 0.0 0.0 0.0 0.0 0.0
7.3 3.7 0.2 0.9 1.0 0.4 1.6 2.9 0.0 3.9 3.2 2.2 1.8 0.1 0.0 0.0 0.0 0.0 0.0 0.0 0.0 0.0 0.0 0.0 0.0 0.0 0.0 0.0 0.0 0.0 0.0 0.0 0.0 0.0 0.0 0.0 0.0 0.0 0.0 0.0 0.0 0.0 0.0 0.0
3.8 10.6 0.0 0.1 1.5 0.4 0.7 0.2 3.5 4.2 13.4 6.7 1.1 1.1 4.6 1.6 0.9 0.0 0.0 0.0 0.0 0.0 0.0 0.0 0.0 0.0 0.0 0.0 0.0 0.0 0.0 0.0 0.0 0.0 0.0 0.0 0.0 0.0 0.0 0.0 0.0 0.0 0.0 0.0
0.7 5.8 1.6 0.5 6.4 5.2 1.0 1.2 0.9 1.4 4.4 10.4 6.4 6.3 5.8 0.7 0.1 0.0 0.0 0.0 0.0 0.0 0.0 0.0 0.0 0.0 0.0 0.0 0.0 0.0 0.0 0.0 0.0 0.0 0.0 0.0 0.0 0.0 0.0 0.0 0.0 0.0 0.0 0.0
0.5 4.3 9.5 8.9 4.1 1.0 0.5 4.2 2.5 8.2 5.1 4.3 5.7 4.9 2.6 1.5 0.3 0.0 0.0 0.0 0.0 0.0 0.0 0.0 0.0 0.0 0.0 0.0 0.0 0.0 0.0 0.0 0.0 0.0 0.0 0.0 0.0 0.0 0.0 0.0 0.0 0.0 0.0 0.0
2.4 1.8 9.6 8.3 4.5 0.3 1.9 1.6 2.2 1.1 2.3 6.5 9.4 8.0 2.3 1.9 0.9 0.0 0.0 0.0 0.0 0.0 0.0 0.0 0.0 0.0 0.0 0.0 0.0 0.0 0.0 0.0 0.0 0.0 0.0 0.0 0.0 0.0 0.0 0.0 0.0 0.0 0.0 0.0
nan 2.0 6.0 11.7 9.9 7.3 6.9 2.2 1.0 2.0 15.6 9.0 6.8 6.1 3.8 3.2 2.0 0.6 0.5 0.1 0.0 0.0 0.0 0.0 0.0 0.0 0.0 0.0 0.0 0.0 0.0 0.0 0.0 0.0 0.0 0.0 0.0 0.0 0.0 0.0 0.0 0.0 0.0 0.0
1.0 6.8 4.1 6.0 5.9 8.0 8.2 4.8 2.1 4.4 6.9 6.6 7.7 6.5 5.7 4.3 2.4 1.7 1.1 0.3 0.1 0.0 0.0 0.0 0.0 0.0 0.0 0.0 0.0 0.0 0.0 0.0 0.0 0.0 0.0 0.0 0.0 0.0 0.0 0.0 0.0 0.0 0.1 0.3
0.9 6.6 4.1 5.7 4.9 7.5 7.7 4.1 3.0 1.7 2.7 3.0 3.8 4.8 5.6 4.2 0.9 1.5 1.8 0.9 0.7 0.1 0.1 0.0 0.0 0.0 0.0 0.0 0.0 0.0 0.0 0.0 0.0 0.0 0.0 0.0 0.0 0.0 0.1 0.1 0.3 0.6 1.7 2.1
2.4 5.9 8.7 17.6 3.8 2.5 15.1 14.4 6.3 7.2 6.5 3.1 6.7 12.7 8.7 7.9 3.7 3.2 2.5 1.5 1.5 1.6 0.7 1.1 1.1 0.5 0.3 0.3 0.1 0.3 0.4 0.0 0.0 0.0 0.0 0.0 0.0 0.3 0.7 0.6 0.7 1.9 2.8 2.0
2.1 4.4 5.1 19.5 7.9 44.7 15.8 7.2 7.0 14.9 8.7 8.3 6.4 9.4 9.9 11.3 7.8 5.1 3.9 2.4 2.7 2.6 2.5 2.1 2.0 1.3 1.1 0.4 0.6 0.1 0.0 0.1 0.2 0.5 0.5 0.3 0.3 0.9 1.0 0.9 1.4 1.6 1.6 1.6
1.0 3.3 22.0 36.7 22.5 5.7 1.3 10.4 13.1 9.6 14.8 11.9 10.7 8.8 11.5 4.6 0.5 8.6 8.7 6.5 6.8 5.2 4.1 3.7 3.5 3.9 1.4 2.2 1.5 1.0 1.5 0.9 0.8 2.0 2.0 2.0 1.3 1.5 1.1 1.2 1.2 1.5 1.5 1.5
0.3 1.2 3.9 25.4 28.5 33.8 11.1 4.3 1.6 3.7 15.5 15.0 17.6 16.4 8.6 0.0 7.2 18.7 13.7 7.7 7.8 6.5 5.0 4.6 3.7 2.7 1.8 2.1 0.9 0.3 0.5 0.5 0.9 1.0 1.1 1.2 1.0 1.0 1.1 0.8 0.9 0.9 0.6 0.5
10.8 13.2 25.7 20.3 21.9 12.6 4.8 0.8 0.0 9.8 18.9 17.7 16.0 15.2 2.0 5.2 8.1 11.6 6.7 4.9 4.7 4.1 4.0 2.7 2.1 2.2 1.8 1.4 1.7 1.4 1.0 1.4 0.6 0.5 0.3 0.3 0.3 0.8 0.3 0.4 0.3 0.5 0.6 0.3
6.4 13.7 25.5 16.7 23.3 38.3 2.2 0.0 5.8 12.3 9.6 10.9 8.7 6.3 5.7 8.3 7.9 5.6 4.4 4.5 3.3 3.3 1.8 1.2 0.5 0.3 0.2 0.1 0.1 0.2 0.3 0.4 0.6 0.8 0.9 1.1 1.7 1.0 0.9 2.8 1.5 2.3 1.8 2.0
6.2 2.3 5.3 3.4 7.5 4.1 3.6 4.3 5.1 5.6 5.6 5.3 3.0 2.2 0.9 0.6 1.0 0.2 0.1 0.0 0.0 0.0 0.0 0.1 0.2 0.2 0.2 0.5 0.5 0.8 0.9 0.9 1.6 2.8 4.3 3.8 2.9 2.4 2.3 3.6 2.4 4.1 2.8 4.1
0.4 0.0 1.2 2.1 1.7 3.2 4.1 2.3 2.4 2.3 0.8 0.2 0.0 0.0 0.0 0.0 0.0 0.0 0.0 0.0 0.0 0.1 0.1 0.2 0.4 0.6 0.6 0.5 0.6 0.5 0.8 1.2 5.4 5.2 2.7 1.9 2.4 1.5 1.8 2.5 3.0 4.5 4.4 4.1
0.3 0.1 0.2 1.2 1.0 1.8 1.0 0.7 1.0 1.2 1.0 0.2 0.0 0.0 0.0 0.0 0.0 0.0 0.1 0.1 0.1 0.1 0.3 0.6 0.7 0.7 0.7 0.7 0.8 1.6 1.6 2.3 2.8 3.3 2.1 2.5 3.2 3.2 2.2 2.0 3.2 2.8 1.3 3.5
0.1 0.3 0.5 1.5 0.8 0.7 0.3 0.0 0.0 0.0 0.1 0.0 0.0 0.0 0.1 0.0 0.0 0.1 0.2 0.1 0.2 0.4 0.6 1.0 1.3 1.3 1.4 2.0 2.4 3.4 4.4 3.7 4.2 2.3 3.8 3.3 3.2 3.2 3.0 3.4 4.3 nan nan nan